Content
SEND FEEDBACK

Daily
Averages
Monthly
Summary
United States of America

AQUASHICOLA, PENNSYLVANIA


Home > North America > United States > Pennsylvania
Elevation: 164 meters     Latitude: 40 48N     Longitude: 075 37W

WEATHER
 
SELECT A DAY
Number of Records: 201,608;   Date Range: 1/1/95 - 7/29/14
 
SHARE

PRINT THIS DATA

[ ← Previous Day ]
WEATHER ALMANAC - 31 JANUARY, 2013
[ Next Day → ]
[ °F ]   °C
Weather ElementAverageHighLow
Temperature6.8 °C13.3 °C (3:51 am)-3.3 °C (10:51 pm)
Dewpoint2.2 °C13 °C (3:11 am)-12.8 °C (8:51 pm)
Humidity75.1 %100 % (12:47 am)40 % (1:51 pm)
Barometer994.6 hPa1009.8 hPa (11:51 pm)984.8 hPa (4:51 am)
Wind Speed21.9 km/h50.1 km/h (5:25 am)
Wind Gust79.7 km/h (9:51 am)
Weather ElementAverage
Visibility10.5 km
Wind DirectionWSW (244.4 °)

Weather ElementTotal
Precipitation117.35 mm
Heating Degree Days13.3 (Base 18.3)
Averaged from 41 records on 31 January, 2013
WEATHER CONDITIONS BREAKOUT
WIND DIRECTION BREAKOUT
WEATHER BY HOUR - 31 JANUARY, 2013
[ °F ]   °C
Local TimeTemperatureDewpointHumidityBarometerVisibilityWind DirectionWind SpeedGust SpeedPrecipitationEventsConditions
12:43 AM13 °C12 °C94 %990.2 hPa4.8 kmWNW (300°)20.4 km/h6.1 mmRainHeavy Rain
12:47 AM12 °C12 °C100 %990.5 hPa4 kmWNW (300°)27.8 km/h33.3 km/h7.11 mmRainHeavy Rain
12:51 AM12.8 °C12.2 °C96 %989.8 hPa2.9 kmCalm8.38 mmRainHeavy Rain
12:59 AM12 °C12 °C100 %989.2 hPa4 kmNNW (340°)11.1 km/h2.29 mmRainRain
1:18 AM12 °C12 °C100 %987.8 hPa2.9 kmNorth (360°)11.1 km/h7.37 mmRainHeavy Rain
1:33 AM12 °C12 °C100 %987.5 hPa4 kmNNW (330°)5.6 km/h11.18 mmRainHeavy Rain
1:43 AM12 °C12 °C100 %987.1 hPa2.4 kmCalm12.95 mmRainHeavy Rain
1:51 AM12.2 °C11.7 °C97 %986.5 hPa2.9 kmNNW (330°)7.4 km/h14.22 mmRainHeavy Rain
1:55 AM12 °C12 °C100 %986.5 hPa3.2 kmNW (320°)5.6 km/h0.51 mmRainHeavy Rain
2:05 AM12 °C12 °C100 %986.1 hPa2.4 kmCalm2.03 mmRainHeavy Rain
2:32 AM12 °C12 °C100 %986.1 hPa1.3 kmCalm5.59 mmRainHeavy Rain
2:49 AM12 °C12 °C100 %985.8 hPa1.6 kmSSW (200°)5.6 km/h11.43 mmRainHeavy Rain
2:51 AM12.2 °C12.2 °C100 %985.8 hPa1.9 kmSSW (210°)5.6 km/h12.19 mmRainHeavy Rain
3:03 AM13 °C12 °C94 %985.8 hPa3.2 kmSW (220°)11.1 km/h1.52 mmRainRain
3:11 AM13 °C13 °C100 %986.8 hPa9.7 kmSW (220°)18.5 km/h2.03 mmRainLight Rain
3:27 AM13 °C13 °C100 %985.8 hPa6.4 kmWSW (240°)20.4 km/h29.6 km/h3.05 mmRainHeavy Rain
3:51 AM13.3 °C12.8 °C97 %985.8 hPa11.3 kmSSW (210°)20.4 km/h5.08 mmRainRain
4:51 AM13.3 °C11.7 °C90 %984.8 hPa16.1 kmSW (230°)20.4 km/h0.51 mmOvercast
5:08 AM13 °C11 °C88 %985.4 hPa4.8 kmWest (280°)25.9 km/h44.4 km/h0.76 mmRainHeavy Rain
5:25 AM10 °C6 °C76 %986.5 hPa16.1 kmWest (280°)50.1 km/h74 km/h1.52 mmRainLight Rain
5:51 AM7.8 °C2.8 °C71 %988.1 hPa16.1 kmWest (270°)37 km/h55.5 km/h1.52 mmRainLight Rain
6:51 AM6.7 °C0 °C63 %990.9 hPa16.1 kmWest (280°)31.5 km/h57.5 km/h0 mmOvercast
7:51 AM5 °C-3.3 °C55 %993.6 hPa16.1 kmWNW (290°)35.2 km/h57.5 km/hPartly Cloudy
8:51 AM5 °C-5 °C49 %995.3 hPa16.1 kmWest (270°)33.3 km/h76 km/hMostly Cloudy
9:51 AM3.9 °C-6.7 °C46 %997 hPa16.1 kmWest (280°)40.7 km/h79.7 km/hMostly Cloudy
10:51 AM5.6 °C-5.6 °C45 %998 hPa16.1 kmWest (260°)40.7 km/h64.9 km/hOvercast
11:51 AM4.4 °C-5 °C51 %998.6 hPa16.1 kmWest (260°)37 km/h62.9 km/hOvercast
12:51 PM5 °C-5.6 °C47 %999.3 hPa16.1 kmWest (260°)42.6 km/h64.9 km/hPartly Cloudy
1:51 PM5 °C-7.8 °C40 %1000.3 hPa16.1 kmWest (280°)33.3 km/h64.9 km/hClear
2:51 PM2.2 °C-7.8 °C48 %1001.7 hPa16.1 kmWest (280°)33.3 km/h64.9 km/hMostly Cloudy
3:51 PM1.1 °C-7.8 °C52 %1003.7 hPa14.5 kmWest (260°)35.2 km/h66.6 km/h0 mmScattered Clouds
4:51 PM0.6 °C-10.6 °C43 %1004.7 hPa16.1 kmWest (280°)22.2 km/h50.1 km/hPartly Cloudy
5:51 PM-0.6 °C-8.9 °C54 %1005.8 hPa16.1 kmWest (280°)24.1 km/h37 km/hPartly Cloudy
6:46 PM-2 °C-6 °C74 %1007.1 hPa2.9 kmWest (270°)25.9 km/h50.1 km/h0 mmSnowLight Snow
6:51 PM-1.7 °C-5 °C78 %1007.1 hPa16.1 kmWest (270°)20.4 km/h37 km/h0 mmSnowLight Snow
7:04 PM-2 °C-6 °C74 %1007.1 hPa16.1 kmWest (260°)24.1 km/h38.9 km/h0 mmScattered Clouds
7:51 PM-1.1 °C-10 °C51 %1008.5 hPa16.1 kmWest (280°)27.8 km/h55.5 km/h0 mmPartly Cloudy
8:51 PM-1.7 °C-12.8 °C43 %1009.1 hPa16.1 kmWest (270°)29.6 km/h48.1 km/hClear
9:51 PM-2.2 °C-11.7 °C49 %1009.5 hPa16.1 kmWSW (250°)18.5 km/h31.5 km/hPartly Cloudy
10:51 PM-3.3 °C-10.6 °C58 %1009.5 hPa16.1 kmWSW (250°)20.4 km/h31.5 km/hClear
11:51 PM-3.3 °C-10.6 °C58 %1009.8 hPa16.1 kmWSW (250°)14.8 km/h27.8 km/hClear
Hourly data recorded from KABE, located 0 kilometers away from Aquashicola, Pennsylvania







STORIES FROM OUR PARTNERS